Overview Statistics Trail Chart Weather Telemetry Raw packets
 

This is the latest recevied weather packets stored in our database for station/object KD0TNH-13. If no packets are shown the sender has not sent any weather packets the latest 10 day(s).

<< 97 98 99 100 101 102 103 >>
Time Temp. Humidity Pressure Rain* Wind** Luminosity Snow
1787839194 17.78° C 90% 29.2 hPa 0 mm 1.34 m/s, 187° - -
1787838893 17.78° C 90% 29.2 hPa 0 mm 1.79 m/s, 178° - -
1787838592 17.78° C 90% 29.2 hPa 0 mm 1.34 m/s, 187° - -
1787838292 17.78° C 90% 29.2 hPa 0 mm 1.79 m/s, 190° - -
1787837992 17.78° C 89% 29.2 hPa 0 mm 2.24 m/s, 186° - -
1787837691 17.78° C 89% 29.2 hPa 0 mm 2.24 m/s, 186° - -
1787837390 17.78° C 89% 29.2 hPa 0 mm 1.79 m/s, 183° - -
1787837089 17.78° C 90% 29.2 hPa 0 mm 1.34 m/s, 187° - -
1787836789 17.78° C 90% 29.2 hPa 0 mm 1.79 m/s, 187° - -
1787836488 17.78° C 90% 29.2 hPa 0 mm 1.79 m/s, 195° - -
1787836187 17.78° C 91% 29.2 hPa 0 mm 1.79 m/s, 191° - -
1787835887 17.78° C 91% 29.2 hPa 0 mm 2.24 m/s, 188° - -
1787835586 17.78° C 92% 29.2 hPa 0 mm 1.79 m/s, 186° - -
1787835285 17.78° C 92% 29.2 hPa 0 mm 1.79 m/s, 193° - -
1787834985 17.78° C 92% 29.2 hPa 0 mm 1.79 m/s, 184° - -
1787834684 17.78° C 92% 29.2 hPa 0 mm 2.68 m/s, 190° - -
1787834384 17.78° C 93% 29.2 hPa 0 mm 2.24 m/s, 187° - -
1787834083 17.22° C 92% 29.2 hPa 0 mm 1.79 m/s, 193° - -
1787833782 17.78° C 92% 29.2 hPa 0 mm 1.79 m/s, 190° - -
1787833481 17.22° C 93% 29.2 hPa 0 mm 2.24 m/s, 184° - -
1787833181 17.22° C 93% 29.2 hPa 0 mm 1.34 m/s, 191° - -
1787832880 17.22° C 92% 29.2 hPa 0 mm 2.68 m/s, 190° - -
1787832579 17.22° C 93% 29.2 hPa 0 mm 2.24 m/s, 185° - -
1787832279 17.22° C 93% 29.2 hPa 0 mm 2.68 m/s, 184° - -
1787831978 17.22° C 93% 29.1 hPa 0 mm 1.79 m/s, 184° - -

* Rain latest hour (hover to see other rain measurements)
** Current wind speed in m/s (hover to see current wind gust speed)